This demonstration page uses our WeatherBlox Daily Observations layout. Learn more.

Left ArrowRight Arrow

Hourly Observations for January 25, 2023

Temp ( °F °C ) Dew Point ( °F °C ) Humidity (%) Winds ( mph kmh ) Pressure ( in mb ) Visibility ( mi km ) Precip ( " mm )
12:15 am 00:15 Clear 32 0 28 -2 86 86 Calm 30.30 1026 10 16 0.00 0.00
12:35 am 00:35 Clear 32 0 30 -1 93 93 Calm 30.30 1026 10 16 0.00 0.00
12:55 am 00:55 Clear 30 -1 30 -1 100 100 Calm 30.30 1026 10 16 0.00 0.00
1:15 am 01:15 Clear 32 0 30 -1 93 93 ENE 3 6 30.29 1026 10 16 0.00 0.00
1:35 am 01:35 Clear 32 0 30 -1 93 93 Calm 30.29 1026 10 16 0.00 0.00
2:35 am 02:35 Clear 34 1 32 0 93 93 ENE 5 7 30.27 1025 10 16 0.00 0.00
2:55 am 02:55 Clear 32 0 32 0 100 100 Calm 30.30 1026 10 16 0.00 0.00
3:15 am 03:15 Clear 34 1 32 0 93 93 NE 3 6 30.30 1026 10 16 0.00 0.00
3:35 am 03:35 Partly Cloudy 34 1 32 0 93 93 Calm 30.30 1026 10 16 0.00 0.00
3:55 am 03:55 Partly Cloudy 34 1 32 0 93 93 Calm 30.32 1027 10 16 0.00 0.00
4:15 am 04:15 Clear 34 1 32 0 93 93 Calm 30.31 1026 10 16 0.00 0.00
4:35 am 04:35 Clear 34 1 32 0 93 93 Calm 30.30 1026 10 16 0.00 0.00
4:55 am 04:55 Partly Cloudy 34 1 32 0 93 93 NE 7 11 30.28 1025 10 16 0.00 0.00
5:15 am 05:15 Mostly Cloudy 34 1 32 0 93 93 E 12 19 30.20 1023 10 16 0.00 0.00
5:35 am 05:35 Partly Cloudy 34 1 32 0 93 93 SE 5 7 30.24 1024 10 16 0.00 0.00
5:55 am 05:55 Clear 36 2 32 0 87 87 Calm 30.25 1024 10 16 0.00 0.00
6:15 am 06:15 Clear 36 2 32 0 87 87 Calm 30.26 1025 10 16 0.00 0.00
6:35 am 06:35 Clear 36 2 32 0 87 87 E 6 9 30.22 1023 10 16 0.00 0.00
6:55 am 06:55 Clear 36 2 32 0 87 87 ESE 5 7 30.21 1023 10 16 0.00 0.00
7:15 am 07:15 Clear 36 2 30 -1 80 80 ESE 5 7 30.22 1023 10 16 0.00 0.00
7:35 am 07:35 Sunny 36 2 32 0 87 87 E 3 6 30.21 1023 10 16 0.00 0.00
7:55 am 07:55 Sunny 36 2 32 0 87 87 E 5 7 30.21 1023 10 16 0.00 0.00
8:15 am 08:15 Partly Cloudy 36 2 32 0 87 87 Calm 30.23 1024 10 16 0.00 0.00
8:35 am 08:35 Mostly Cloudy 36 2 32 0 87 87 ENE 5 7 30.23 1024 10 16 0.00 0.00
8:55 am 08:55 Cloudy 36 2 32 0 87 87 E 6 9 30.23 1024 10 16 0.00 0.00
9:15 am 09:15 Cloudy 36 2 32 0 87 87 E 10 17 30.19 1022 10 16 0.00 0.00
9:35 am 09:35 Cloudy 36 2 32 0 87 87 ESE 3 6 30.23 1024 10 16 0.00 0.00
9:55 am 09:55 Cloudy 36 2 32 0 87 87 E 8 13 30.20 1023 10 16 0.00 0.00
10:15 am 10:15 Cloudy 37 3 32 0 81 81 ESE 13 20 30.18 1022 10 16 0.00 0.00
10:35 am 10:35 Cloudy 37 3 32 0 81 81 ESE 6 9 30.20 1023 10 16 0.00 0.00
10:55 am 10:55 Cloudy 37 3 32 0 81 81 E 7 11 30.15 1021 10 16 0.00 0.00
11:15 am 11:15 Cloudy 37 3 32 0 81 81 ESE 3 6 30.16 1021 10 16 0.00 0.00
11:35 am 11:35 Cloudy with Light Rain 37 3 34 1 87 87 ESE 5 7 30.13 1020 10 16 0.00 0.00
11:55 am 11:55 Cloudy with Light Rain 37 3 34 1 87 87 Calm 30.12 1020 10 16 0.00 0.00
12:15 pm 12:15 Cloudy with Light Rain 37 3 36 2 93 93 SE 3 6 30.12 1020 7 11 0.00 0.00
12:35 pm 12:35 Cloudy with Rain 37 3 36 2 93 93 E 6 9 30.08 1018 7 11 0.00 0.00
12:55 pm 12:55 Cloudy with Light Rain 36 2 36 2 100 100 ESE 6 9 30.04 1017 4 6 0.00 0.00
1:15 pm 13:15 Cloudy with Light Rain 36 2 36 2 100 100 ESE 7 11 30.03 1017 4 6 0.00 0.00
1:35 pm 13:35 Cloudy with Light Rain 37 3 37 3 100 100 E 8 13 29.99 1015 5 8 0.00 0.00
1:55 pm 13:55 Cloudy with Rain 37 3 37 3 100 100 ESE 7 11 29.98 1015 3 5 0.00 0.00
2:15 pm 14:15 Cloudy with Rain 37 3 37 3 100 100 ESE 12 19 29.93 1013 3 4 0.00 0.00
2:35 pm 14:35 Cloudy with Light Rain 37 3 37 3 100 100 SE 15 24 29.87 1011 4 6 0.00 0.00
2:55 pm 14:55 Cloudy with Light Rain 37 3 37 3 100 100 ESE 8 13 29.85 1011 4 6 0.00 0.00
3:15 pm 15:15 Cloudy with Drizzle 39 4 39 4 100 100 SE 6 9 29.84 1010 7 11 0.00 0.00
3:35 pm 15:35 Cloudy with Drizzle 39 4 39 4 100 100 S 3 6 29.84 1011 4 6 0.01 0.25
3:55 pm 15:55 Cloudy with Light Rain 41 5 41 5 100 100 SSW 5 7 29.83 1010 2 2 0.03 0.76
4:15 pm 16:15 Cloudy with Light Rain 39 4 39 4 100 100 SSE 7 11 29.79 1009 1 2 0.02 0.51
4:35 pm 16:35 Cloudy with Light Rain 39 4 39 4 100 100 WNW 5 7 29.81 1009 1 2 0.03 0.76
4:55 pm 16:55 Cloudy with Drizzle 39 4 39 4 100 100 Calm 29.79 1009 2 2 0.04 1.02
5:15 pm 17:15 Cloudy with Light Rain 39 4 39 4 100 100 Calm 29.75 1007 1 2 0.01 0.25
5:55 pm 17:55 Cloudy with Drizzle 39 4 39 4 100 100 Calm 29.73 1007 2 3 0.02 0.51
6:15 pm 18:15 Cloudy with Drizzle 39 4 39 4 100 100 WNW 3 6 29.71 1006 2 3 0.01 0.25
6:35 pm 18:35 Cloudy with Drizzle 39 4 39 4 100 100 NW 3 6 29.71 1006 3 4 0.01 0.25
6:55 pm 18:55 Cloudy with Drizzle 39 4 39 4 100 100 NW 6 9 29.70 1006 2 3 0.01 0.25
7:15 pm 19:15 Cloudy with Drizzle 39 4 39 4 100 100 WNW 8 13 29.71 1006 3 5 0.00 0.00
7:35 pm 19:35 Cloudy with Drizzle 39 4 39 4 100 100 NW 5 7 29.68 1005 2 3 0.01 0.25
7:55 pm 19:55 Cloudy with Drizzle 39 4 39 4 100 100 Calm 29.68 1005 3 4 0.01 0.25
8:15 pm 20:15 Cloudy with Mist and Fog 39 4 39 4 100 100 Calm 29.66 1005 5 8 0.00 0.00
8:35 pm 20:35 Cloudy with Drizzle 39 4 39 4 100 100 SSE 3 6 29.66 1004 4 6 0.00 0.00
8:55 pm 20:55 Cloudy with Mist and Fog 39 4 39 4 100 100 Calm 29.65 1004 5 8 0.00 0.00
9:15 pm 21:15 Cloudy 39 4 39 4 100 100 SSE 3 6 29.63 1003 10 16 0.00 0.00
9:35 pm 21:35 Cloudy 39 4 39 4 100 100 Calm 29.62 1003 7 11 0.00 0.00
9:55 pm 21:55 Cloudy with Mist and Fog 39 4 39 4 100 100 Calm 29.62 1003 5 8 0.00 0.00
10:15 pm 22:15 Cloudy with Mist and Fog 37 3 37 3 100 100 WSW 3 6 29.61 1003 5 8 0.00 0.00
10:35 pm 22:35 Cloudy with Mist and Fog 37 3 37 3 100 100 W 3 6 29.61 1003 5 8 0.00 0.00
10:55 pm 22:55 Mostly Cloudy 37 3 37 3 100 100 S 6 9 29.59 1002 7 11 0.00 0.00
11:15 pm 23:15 Partly Cloudy with Mist and Fog 37 3 37 3 100 100 Calm 29.59 1002 5 8 0.00 0.00
11:35 pm 23:35 Cloudy with Mist and Fog 37 3 37 3 100 100 NNW 5 7 29.60 1002 5 8 0.00 0.00
11:55 pm 23:55 Cloudy with Mist and Fog 37 3 37 3 100 100 Calm 29.59 1002 5 8 0.00 0.00

Powered by AerisWeather